[[{"header":{"parameterUnit":"m.s-1","parameterCategory":1,"la1":30.2991,"la2":30.254,"lo1":-89.0895,"lo2":-89.0444,"dy":0.0017,"dx":0.0017,"nx":28,"ny":28,"refTime":"2025-09-13T21:00:00:Z","depth":0,"parameterNumber":2,"parameterNumberName":"U-component_of_WINDS"},"data":[0,0,0,0,0,0,0,0,0,0,0,0,0,0,0,0,0,0,0,0,0,0,0,0,0,0,0,0,0,0,0,0,0,0,0,0,0,0,0,0,0,0,0,0,0,0,0,0,0,0,0,0,0,0,0,0,0,0,-3.1317,-3.1317,0,-3.1292,-3.1292,-3.1291,-3.1227,-3.1226,-3.1225,-3.1224,-3.1197,-3.1198,-3.1198,0,0,0,0,0,0,0,0,0,0,0,0,0,-3.1313,-3.1313,-3.1317,-3.1317,-3.1317,-3.1292,-3.1291,-3.1291,-3.1228,-3.1226,-3.1224,-3.1223,-3.1197,-3.1198,-3.1198,0,0,0,0,0,0,0,0,0,0,0,0,0,-3.1304,-3.1313,-3.1317,-3.1282,-3.1279,-3.1292,-3.1291,-3.1291,-3.1228,-3.1226,-3.1224,-3.1222,-3.1197,-3.1197,-3.1198,-3.1244,0,0,-3.1201,-3.1201,0,0,0,0,0,0,0,0,-3.1304,-3.1304,-3.1288,-3.1285,-3.1281,-3.1261,-3.128,-3.1275,-3.1229,-3.1247,-3.1223,-3.1221,-3.122,-3.1219,-3.1218,-3.1242,-3.1241,-3.1201,-3.1201,-3.1202,-3.1202,0,0,0,0,0,0,0,-3.1305,-3.1305,-3.1307,-3.1287,-3.1283,-3.1268,-3.1265,-3.1279,-3.1245,-3.1245,-3.1241,-3.1239,-3.1218,-3.1218,-3.1217,-3.1241,-3.1201,-3.1202,-3.1202,-3.1202,-3.1303,-3.1305,0,0,0,0,0,0,-3.1311,-3.1306,-3.1308,-3.1306,-3.1288,-3.127,-3.1266,-3.1269,-3.1245,-3.1239,-3.124,-3.1236,-3.1217,-3.1216,-3.1216,-3.1268,-3.1202,-3.1202,-3.1203,-3.1301,-3.1303,-3.1305,0,0,0,0,0,0,-3.1311,-3.1312,-3.1309,-3.1305,-3.1303,-3.1272,-3.1276,-3.127,-3.127,-3.1241,-3.1235,-3.1246,-3.1216,-3.1215,-3.1238,-3.1266,-3.1203,-3.1204,-3.1298,-3.1301,-3.1304,-3.1372,0,0,0,0,0,0,-3.1311,-3.1312,-3.1328,-3.1306,-3.1304,-3.1331,-3.1278,-3.1271,-3.1271,-3.1265,-3.1245,-3.124,-3.1214,-3.1237,-3.1238,-3.1266,-3.1204,-3.1295,-3.1299,-3.1303,-3.1367,-3.1377,-3.1385,0,0,0,0,0,-3.1311,-3.1348,-3.1329,-3.133,-3.1324,-3.1332,-3.1331,-3.1301,-3.1274,-3.129,-3.1272,-3.124,-3.1263,-3.124,-3.1241,-3.1269,-3.1293,-3.1298,-3.1303,-3.1362,-3.1375,-3.1385,0,0,0,0,0,0,-3.1374,-3.1344,-3.1323,-3.1354,-3.1346,-3.1322,-3.1341,-3.1315,-3.1314,-3.1308,-3.1271,-3.1267,-3.1295,-3.1285,-3.1259,-3.1313,-3.1273,-3.1279,-3.1318,-3.1329,-3.1339,-3.134,-3.1205,0,0,0,0,0,-3.1391,-3.1401,-3.1374,-3.1404,-3.1401,-3.1372,-3.1375,-3.1353,-3.1343,-3.1339,-3.1323,-3.1315,-3.1321,-3.1325,-3.1328,-3.1366,-3.1361,-3.1386,-3.1396,-3.1403,-3.1408,-3.1428,-3.1439,-3.1322,-3.1322,-3.1321,0,0,-3.1427,-3.1412,-3.142,-3.1416,-3.1407,-3.1419,-3.137,-3.1383,-3.1391,-3.1341,-3.1361,-3.135,-3.1339,-3.137,-3.1382,-3.1362,-3.144,-3.141,-3.1416,-3.1416,-3.1434,-3.1445,-3.1455,-3.1325,-3.1324,-3.1324,0,0,-3.1497,-3.1487,-3.1511,-3.1504,-3.1492,-3.1473,-3.1479,-3.1459,-3.145,-3.147,-3.1433,-3.1443,-3.1453,-3.1447,-3.1445,-3.1517,-3.1488,-3.152,-3.1568,-3.1588,-3.1597,-3.1605,-3.163,-3.164,-3.1525,-3.1525,-3.1525,0,-3.1543,-3.1557,-3.1526,-3.1542,-3.1542,-3.1499,-3.1524,-3.1518,-3.1509,-3.151,-3.1487,-3.15,-3.149,-3.1519,-3.1537,-3.1537,-3.1543,-3.152,-3.1598,-3.1606,-3.1613,-3.1637,-3.1646,-3.1529,-3.1528,-3.1528,-3.1528,0,-3.1614,-3.1626,-3.1646,-3.1638,-3.1641,-3.1661,-3.1634,-3.164,-3.1619,-3.1603,-3.1625,-3.1611,-3.1612,-3.1618,-3.1596,-3.1645,-3.1632,-3.1605,-3.1564,-3.1628,-3.165,-3.1659,-3.1534,-3.1533,-3.1532,-3.1531,0,0,-3.1719,-3.1697,-3.1705,-3.1701,-3.1687,-3.1695,-3.1715,-3.1715,-3.1722,-3.1718,-3.1733,-3.1744,-3.1719,-3.1718,-3.1696,-3.1714,-3.1772,-3.1684,-3.1683,-3.17,-3.1824,-3.1844,-3.1855,-3.1754,-3.1755,-3.1757,-3.1825,0,-3.1785,-3.1816,-3.179,-3.1826,-3.1836,-3.1798,-3.1815,-3.1808,-3.1795,-3.1802,-3.1787,-3.1795,-3.1762,-3.1761,-3.1777,-3.1761,-3.1796,-3.1756,-3.1767,-3.1768,-3.1769,-3.1866,-3.1886,-3.1951,-3.1833,-3.1835,-3.1836,0,-3.1864,-3.1865,-3.1902,-3.1887,-3.189,-3.1906,-3.1906,-3.1913,-3.1906,-3.1895,-3.1895,-3.1869,-3.1888,-3.1851,-3.1876,-3.185,-3.1853,-3.1847,-3.1849,-3.1846,-3.1804,-3.1865,-3.1971,-3.198,-3.1849,-3.1848,-3.1847,0,-3.1937,-3.1947,-3.197,-3.1969,-3.1952,-3.1964,-3.1958,-3.1948,-3.1952,-3.1952,-3.1954,-3.1957,-3.1958,-3.1961,-3.1937,-3.1912,-3.1966,-3.1926,-3.1957,-3.1958,-3.1968,-3.1967,-3.2074,-3.1974,-3.1974,-3.1973,-3.1973,0,-3.2011,-3.2035,-3.2003,-3.2017,-3.2043,-3.2015,-3.2042,-3.2032,-3.2024,-3.2037,-3.2004,-3.2017,-3.1985,-3.1995,-3.1977,-3.2001,-3.2002,-3.1994,-3.1988,-3.1995,-3.1996,-3.1995,-3.1989,-3.1976,-3.1975,-3.1975,-3.1975,0,-3.2095,-3.2074,-3.2097,-3.2081,-3.2077,-3.2097,-3.2083,-3.2096,-3.2082,-3.2098,-3.21,-3.2078,-3.2088,-3.2065,-3.2071,-3.2059,-3.2094,-3.2082,-3.2096,-3.2092,-3.2123,-3.212,-3.2231,-3.2244,-3.2138,-3.2139,-3.214,0,-3.2143,-3.216,-3.2146,-3.2153,-3.2148,-3.2158,-3.2162,-3.2136,-3.214,-3.2135,-3.2149,-3.2157,-3.216,-3.2178,-3.2162,-3.2168,-3.2155,-3.2194,-3.2155,-3.2162,-3.2154,-3.2153,-3.2154,-3.2201,-3.2202,-3.2203,-3.2204,0,-3.223,-3.2219,-3.2225,-3.2229,-3.2234,-3.2235,-3.2234,-3.2241,-3.2213,-3.2221,-3.2231,-3.2234,-3.2242,-3.225,-3.2252,-3.2246,-3.222,-3.2217,-3.2224,-3.223,-3.2237,-3.2233,-3.2116,-3.2214,-3.2213,-3.2212,-3.2211,-3.2211,-3.2296,-3.231,-3.2303,-3.2312,-3.2309,-3.2309,-3.2321,-3.2309,-3.2317,-3.2321,-3.2306,-3.2319,-3.2314,-3.2314,-3.2311,-3.2322,-3.2304,-3.2315,-3.2317,-3.232,-3.2325,-3.2238,-3.2323,-3.2322,-3.2322,-3.2322,-3.2322,0,-3.238,-3.2375,-3.2383,-3.2383,-3.239,-3.2368,-3.2366,-3.2374,-3.2386,-3.2383,-3.2389,-3.2401,-3.2409,-3.2396,-3.2402,-3.2413,-3.2402,-3.2416,-3.2413,-3.2412,-3.2341,-3.2333,-3.2425,-3.2425,-3.2425,-3.2425,-3.2425,-3.2425,-3.2425,-3.2448,-3.2437,-3.246,-3.2454,-3.2467,-3.2468,-3.2469,-3.2467,-3.2482,-3.2489,-3.2481,-3.2474,-3.248,-3.2487,-3.2483,-3.2486,-3.2503,-3.2495,-3.2428,-3.2417,-3.2408,-3.24,-3.2505,-3.2505,-3.2566,-3.2566,-3.2567]},{"header":{"parameterUnit":"m.s-1","parameterCategory":1,"la1":30.2991,"la2":30.254,"lo1":-89.0895,"lo2":-89.0444,"dy":0.0017,"dx":0.0017,"nx":28,"ny":28,"refTime":"2025-09-13T21:00:00:Z","depth":0,"parameterNumber":3,"parameterNumberName":"V-component_of_WINDS"},"data":[0,0,0,0,0,0,0,0,0,0,0,0,0,0,0,0,0,0,0,0,0,0,0,0,0,0,0,0,0,0,0,0,0,0,0,0,0,0,0,0,0,0,0,0,0,0,0,0,0,0,0,0,0,0,0,0,0,0,2.4347,2.4347,0,2.4333,2.4333,2.4333,2.4395,2.4397,2.4399,2.4401,2.4378,2.4376,2.4374,0,0,0,0,0,0,0,0,0,0,0,0,0,2.4421,2.4419,2.4347,2.4347,2.4347,2.4333,2.4333,2.4333,2.4395,2.4397,2.4399,2.4402,2.4379,2.4376,2.4373,0,0,0,0,0,0,0,0,0,0,0,0,0,2.4396,2.4418,2.4347,2.4376,2.4379,2.4333,2.4333,2.4333,2.4394,2.4397,2.44,2.4403,2.438,2.4376,2.4373,2.4296,0,0,2.4362,2.4361,0,0,0,0,0,0,0,0,2.4397,2.4393,2.4372,2.4374,2.4377,2.4369,2.4351,2.432,2.4394,2.4388,2.4401,2.4404,2.4372,2.437,2.4361,2.4295,2.4294,2.4362,2.436,2.4358,2.4357,0,0,0,0,0,0,0,2.4399,2.4394,2.4341,2.4372,2.4375,2.4388,2.4387,2.4345,2.4364,2.4389,2.4394,2.4391,2.4374,2.4364,2.436,2.4293,2.4362,2.4359,2.4357,2.4355,2.4162,2.4159,0,0,0,0,0,0,2.4397,2.4395,2.4342,2.4341,2.4394,2.4384,2.4384,2.4368,2.4365,2.4368,2.4389,2.4394,2.4368,2.4365,2.436,2.4268,2.4358,2.4355,2.4353,2.4165,2.4162,2.4158,0,0,0,0,0,0,2.4399,2.4392,2.4342,2.4369,2.4364,2.438,2.4362,2.4367,2.4357,2.4366,2.4368,2.4375,2.437,2.4365,2.4312,2.4268,2.4354,2.435,2.4169,2.4164,2.416,2.4083,0,0,0,0,0,0,2.4401,2.4392,2.4365,2.4368,2.4362,2.4296,2.436,2.4364,2.4351,2.4358,2.4353,2.4355,2.4372,2.4316,2.4308,2.4265,2.4348,2.4173,2.4167,2.4161,2.409,2.4077,2.4066,0,0,0,0,0,2.4403,2.4342,2.4363,2.4356,2.4328,2.4293,2.4289,2.4313,2.4348,2.4319,2.4325,2.4355,2.4275,2.4311,2.4302,2.4256,2.4175,2.4168,2.4162,2.4095,2.4079,2.4066,0,0,0,0,0,0,2.4329,2.4343,2.4366,2.4305,2.4298,2.4304,2.4268,2.4295,2.4276,2.4282,2.431,2.4308,2.4249,2.4248,2.4288,2.4181,2.4231,2.4222,2.4183,2.4168,2.4157,2.4156,2.4345,0,0,0,0,0,2.4307,2.428,2.4292,2.4237,2.4232,2.4251,2.4236,2.4255,2.4248,2.4244,2.4246,2.4235,2.4208,2.4189,2.4164,2.4092,2.409,2.4056,2.4044,2.4034,2.4024,2.3984,2.3969,2.4136,2.4136,2.4136,0,0,2.4258,2.4262,2.4243,2.4222,2.4219,2.4187,2.4247,2.4212,2.4188,2.4238,2.4188,2.4189,2.4179,2.4115,2.4088,2.4112,2.3979,2.4025,2.4017,2.4013,2.3976,2.396,2.3946,2.4131,2.4132,2.4133,0,0,2.4153,2.4155,2.4108,2.4105,2.41,2.4113,2.4102,2.4105,2.4108,2.4059,2.4096,2.4067,2.4019,2.401,2.3999,2.3893,2.392,2.3884,2.3819,2.378,2.3767,2.3755,2.3714,2.37,2.3876,2.3876,2.3876,0,2.4092,2.4049,2.408,2.4042,2.4031,2.4079,2.403,2.4024,2.401,2.4,2.403,2.3971,2.3968,2.3902,2.3877,2.3867,2.3853,2.3883,2.3767,2.3755,2.3745,2.3706,2.3691,2.3871,2.3872,2.3872,2.3873,0,2.3973,2.3943,2.3905,2.3894,2.3879,2.3836,2.3858,2.3839,2.386,2.3869,2.3818,2.3816,2.3791,2.3778,2.3797,2.3714,2.373,2.3763,2.3812,2.3724,2.3688,2.3673,2.3865,2.3866,2.3868,2.3869,0,0,2.3817,2.3826,2.3811,2.3806,2.3806,2.3781,2.374,2.3719,2.3701,2.3691,2.3654,2.3614,2.3645,2.3633,2.3651,2.3617,2.353,2.3654,2.3654,2.3628,2.3436,2.3408,2.3391,2.355,2.3547,2.3545,2.3436,0,2.3712,2.3644,2.3672,2.36,2.3571,2.3617,2.3581,2.3575,2.3583,2.3558,2.3566,2.3536,2.3581,2.3573,2.3542,2.3547,2.3491,2.3556,2.3513,2.3511,2.351,2.3373,2.3343,2.324,2.3422,2.342,2.3418,0,2.3579,2.3566,2.3492,2.3497,2.3486,2.3453,2.3435,2.3412,2.3406,2.3415,2.3402,2.3429,2.3386,2.344,2.338,2.3423,2.3408,2.3408,2.3404,2.3398,2.3456,2.3359,2.3208,2.3191,2.3397,2.3398,2.34,0,2.3469,2.3433,2.3384,2.3379,2.3384,2.336,2.336,2.3358,2.3343,2.3328,2.3318,2.3297,2.3284,2.3266,2.3285,2.3323,2.3221,2.3277,2.3223,2.3222,2.3196,2.3197,2.3037,2.3192,2.3193,2.3193,2.3193,0,2.3347,2.3299,2.3335,2.3304,2.3251,2.3284,2.323,2.3235,2.3233,2.3202,2.3241,2.3211,2.324,2.3212,2.3227,2.3173,2.3168,2.3171,2.3174,2.3165,2.3164,2.3152,2.3158,2.3189,2.319,2.3191,2.3191,0,2.3213,2.3236,2.3185,2.3195,2.3197,2.3157,2.3165,2.3135,2.3148,2.3108,2.3101,2.3119,2.3088,2.3107,2.3074,2.3084,2.3014,2.3029,2.3016,2.3019,2.2963,2.2967,2.2787,2.2764,2.2937,2.2936,2.2934,0,2.3131,2.3096,2.3103,2.3087,2.3086,2.3059,2.3045,2.3075,2.3059,2.305,2.3021,2.2995,2.2974,2.2922,2.293,2.2906,2.2918,2.2857,2.2914,2.2906,2.2913,2.2914,2.2909,2.2844,2.2842,2.284,2.2839,0,2.2983,2.2996,2.2976,2.296,2.2943,2.2931,2.2922,2.2905,2.2936,2.2915,2.2886,2.287,2.2839,2.281,2.279,2.2788,2.2816,2.2822,2.2808,2.2795,2.2788,2.2788,2.298,2.2825,2.2826,2.2827,2.2828,2.2828,2.287,2.2841,2.2841,2.2817,2.2815,2.2805,2.2778,2.2789,2.2765,2.2744,2.2763,2.2727,2.2722,2.2698,2.2692,2.2662,2.2687,2.2667,2.2661,2.2654,2.2645,2.2797,2.2659,2.2659,2.266,2.266,2.2661,0,2.2721,2.2725,2.2703,2.269,2.2671,2.2705,2.2697,2.2677,2.2646,2.264,2.262,2.2585,2.2558,2.2566,2.2541,2.2516,2.2528,2.2508,2.2508,2.2506,2.2627,2.264,2.2498,2.2498,2.2498,2.2498,2.2498,2.2498,2.2641,2.2592,2.2606,2.2555,2.2559,2.2525,2.2518,2.2508,2.2504,2.2464,2.2443,2.245,2.2449,2.2425,2.24,2.2403,2.2391,2.2364,2.2371,2.2482,2.2498,2.2513,2.2526,2.2362,2.2362,2.2253,2.2252,2.2251]}]]